Retour au catalogue

STARLINK-30263

ActifCommunicationsVLEO
NORAD 57642·PAYLOAD·🇺🇸 United States

Lancé Aug 17, 2023 depuis Cape Canaveral Space Force Station

Loading…

Prochains Passages (prochaines 24 heures)

TLE

FraisSource: CelesTrak SupGP

Époque: Sep 14, 2026, 21:43 UTC

1 57642C 23122L   26257.90534722 -.00119110  00000+0 -43160-2 0  2575
2 57642  42.9995 103.6425 0001242 270.5413 256.2334 15.27623360    17

Suivez STARLINK-30263 en temps réel avec AllMySat

Download on the App Store